Flag for Turkey Weather past 2 weeks in Gaziantep, Turkey

Now
39 °F

Clear.


Feels Like: 37 °F
Forecast: 34 / 55 °F
Wind: 3 mph from West

Location: Gaziantep Airport

Current Time: Jan 26, 2015 at 11:00:03 PM

Latest Report: Jan 26, 2015 at 10:20 PM


Visibility: 10 mi

Pressure: 30.09 "Hg

Humidity: 81%

Dew point: 34 °F

Location of GaziantepLocation

Historic Weather in Gaziantep — Graph

°F

Gaziantep temperature yesterday

Maximum temperature yesterday: 57 °F (at 2:20 PM)
Minimum temperature yesterday: 37 °F (at 3:20 AM)
Average temperature yesterday: 45 °F

Past Weeks' High & Low Weather Summary

 TemperatureHumidityPressure
High57 °F (Jan 20, 11:20 AM)100% (Jan 15, 10:50 AM)30.42 "Hg (Jan 15, 10:50 AM)
Low19 °F (Jan 12, 5:50 AM)24% (Jan 18, 1:50 PM)30.01 "Hg (Jan 15, 2:20 PM)
Average39 °F74%30.20 "Hg
* Reported Jan 11 9:20 PM — Jan 26 9:50 PM, Gaziantep, Weather by CustomWeather, © 2014

Note: Actual official high and low records may vary slightly from our data, if they occured in-between our weather recording intervals... More about our weather records

Advertising

Gaziantep weather history for previous 24 hours

 ConditionsComfort  
Time TempWeatherWind HumidityBarometerVisibility
9:50 PM
Jan 26
39 °FClear.6 mph75%30.09 "Hg10 mi
9:20 PM41 °FClear.3 mph76%30.09 "Hg10 mi
8:50 PM41 °FClear.No wind76%30.09 "Hg10 mi
8:20 PM43 °FClear.7 mph71%30.09 "Hg10 mi
7:50 PM43 °FClear.1 mph71%30.09 "Hg10 mi
7:20 PM41 °FClear.2 mph76%30.09 "Hg10 mi
6:50 PM43 °FClear.1 mph71%30.09 "Hg10 mi
6:20 PM46 °FPassing clouds.5 mph62%30.09 "HgN/A
5:50 PM46 °FPassing clouds.5 mph62%30.07 "HgN/A
5:20 PM50 °FClear.No wind54%30.07 "Hg10 mi
4:50 PM52 °FPassing clouds.1 mph50%30.07 "HgN/A
4:20 PM55 °FPassing clouds.1 mph44%30.07 "HgN/A
3:50 PM55 °FPassing clouds.3 mph41%30.07 "HgN/A
3:20 PM55 °FPassing clouds.5 mph41%30.04 "HgN/A
2:50 PM57 °FPassing clouds.5 mph39%30.04 "HgN/A
2:20 PM57 °FSunny.1 mph39%30.04 "Hg10 mi
1:50 PM57 °FSunny.No wind39%30.04 "Hg10 mi
1:20 PM55 °FSunny.No wind41%30.07 "Hg10 mi
12:50 PM55 °FSunny.1 mph38%30.07 "Hg10 mi
12:20 PM55 °FSunny.No wind41%30.07 "Hg10 mi
11:50 AM54 °FPassing clouds.3 mph44%30.07 "HgN/A
11:20 AM54 °FPassing clouds.3 mph44%30.09 "HgN/A
10:50 AM52 °FPassing clouds.5 mph44%30.09 "HgN/A
10:20 AM52 °FPassing clouds.6 mph47%30.12 "HgN/A
9:50 AM50 °FPassing clouds.6 mph50%30.12 "HgN/A
9:20 AM48 °FPassing clouds.8 mph54%30.12 "HgN/A
8:50 AM46 °FSunny.9 mph57%30.12 "Hg10 mi
8:20 AM45 °FSunny.8 mph61%30.12 "Hg10 mi
7:50 AM41 °FSunny.7 mph70%30.12 "Hg10 mi
7:20 AM39 °FSunny.8 mph75%30.12 "Hg10 mi
6:50 AM39 °FPassing clouds.8 mph70%30.12 "HgN/A
6:20 AM39 °FClear.7 mph70%30.12 "Hg10 mi
5:50 AM39 °FClear.8 mph75%30.12 "Hg10 mi
5:20 AM41 °FClear.8 mph70%30.12 "Hg10 mi
4:50 AM39 °FClear.8 mph75%30.12 "Hg10 mi
4:20 AM39 °FClear.7 mph75%30.12 "Hg10 mi
3:50 AM39 °FClear.7 mph75%30.12 "Hg10 mi
3:20 AM41 °FClear.2 mph70%30.12 "Hg10 mi
2:50 AM41 °FClear.8 mph70%30.12 "Hg10 mi
2:20 AM41 °FClear.9 mph70%30.12 "Hg10 mi
1:50 AM41 °FClear.8 mph70%30.12 "Hg10 mi
1:20 AM43 °FPassing clouds.5 mph66%30.15 "HgN/A
12:50 AM43 °FClear.8 mph66%30.15 "Hg10 mi
12:20 AM43 °FClear.6 mph71%30.12 "Hg10 mi
11:50 PM
Jan 25
43 °FPassing clouds.7 mph71%30.15 "HgN/A
11:20 PM43 °FPassing clouds.7 mph66%30.15 "HgN/A
Weather by CustomWeather, © 2014

See weather overviewHow to use our weather pages